Regional Weather Roundup
Issued by NWS Albany, NY

Home | Current Version | Previous Version | Text Only | Print | Product List | Glossary On
Versions: 1 2 3 4 5 6 7 8 9 10 11 12 13 14 15 16 17 18 19 20 21 22 23 24 25 26 27 28 29 30 31 32 33 34 35 36 37 38 39 40 41 42 43 44 45 46 47 48 49 50
000
ASUS41 KALY 032110
RWRALY

NEW YORK STATE HOURLY WEATHER ROUNDUP
NATIONAL WEATHER SERVICE ALBANY NY
400 PM EST SAT DEC 03 2016

NOTE: "FAIR" INDICATES FEW OR NO CLOUDS BELOW 12,000 FEET WITH NO
SIGNIFICANT WEATHER AND/OR NO OBSTRUCTIONS TO VISIBILITY.

NYZ032-033-038>043-046>054-057>066-NYZ062>081-082-084-032200-
EAST


CITY           SKY/WX    TMP DP  RH WIND       PRES   REMARKS
ALBANY         MOCLDY    37  25  61 W18G28    30.04R WCI  27
GLENS FALLS    CLOUDY    39  21  48 NW7G17    30.03R WCI  34
POUGHKEEPSIE   CLOUDY    41  25  53 NW9       30.04R
NEWBURGH       MOCLDY    41  28  60 NW16      30.06R
MONTGOMERY     CLOUDY    43  27  53 NW12      30.05R
WHITE PLAINS   PTCLDY    43  25  49 NW24G31   30.03R
ISLIP          MOCLDY    46  25  43 NW20G31   30.02R
NEW YORK CITY  PTCLDY    47  27  45 NW22G33   30.07R
CENTRAL PARK   CLEAR     45  25  45 MISG      30.10R
$$

NYZ005>009-017-018-044>046-055-056-032200-
CENTRAL


CITY           SKY/WX    TMP DP  RH WIND       PRES   REMARKS
FULTON         CLOUDY    38  29  70 W9        30.12R WCI  31
SYRACUSE       FLURRIES  37  30  75 W13       30.12R WCI  29
ROME           CLOUDY    35  32  88 W12       30.11R WCI  27
ELMIRA         CLOUDY    40  26  57 NW13      30.13R WCI  32
BINGHAMTON     CLOUDY    32  30  92 NW14      30.08R WCI  22
MONTICELLO     CLOUDY    36  27  69 NW18G24   30.05R WCI  25
$$

NYZ026>034-041>043-087-032200-
NORTH


CITY           SKY/WX    TMP DP  RH WIND       PRES   REMARKS
WATERTOWN      CLOUDY    36  24  62 NW8       30.11R WCI  30
FORT DRUM      NOT AVBL
OGDENSBURG     MOCLDY    37  27  68 NW8       30.09R WCI  30
MASSENA        CLOUDY    36  23  59 NW9G18    30.09R WCI  29
SARANAC LAKE   CLOUDY    28  22  78 VRB5      29.98R WCI  23
PLATTSBURGH    CLOUDY    36  25  64 NW8       30.02R WCI  30
$$

NYZ001>004-010>016-019>021-085-032200-
WEST


CITY           SKY/WX    TMP DP  RH WIND       PRES   REMARKS
NIAGARA FALLS  CLOUDY    42  25  50 NW13      30.21R
BUFFALO        CLOUDY    40  25  55 W13G22    30.21R WCI  32
DUNKIRK        LGT RAIN  39  34  82 NW10G20   30.23R WCI  32
JAMESTOWN      CLOUDY    36  30  80 W13       30.19S WCI  27
WELLSVILLE     CLOUDY    35  30  82 NW15      30.15R WCI  25
ROCHESTER      CLOUDY    39  30  70 NW12G22   30.18R WCI  32
PENN YAN       CLOUDY    38  28  67 VRB7      30.14R WCI  33
$$

             KEY
       WCI = WIND CHILL INDEX
       VSB = VISIBILITY
       HX  = HEAT INDEX
$$



USA.gov is the U.S. government's official web portal to all federal, state and local government web resources and services.